Location: Altoona
(40.5167°N, 78.4000°W)
Time: 22:57:40
(UTC-05:00)

Cosmos 1850 Rocket - Pass Details

Date: 21 August 2017
Orbit: 755 x 785 km, 74.0° (Epoch: 22 November)

Event Time Altitude Azimuth Distance (km) Brightness Sun altitude
Rises 20:52:13 0° 343° (NNW) 3,279 7.9 -9.7°
Reaches altitude 10° 20:54:39 10° 346° (NNW) 2,344 7.1 -10.2°
Maximum altitude 20:59:58 68° 69° (ENE) 838 4.0 -11.1°
Drops below altitude 10° 21:05:12 10° 153° (SSE) 2,312 6.0 -12.0°
Enters shadow 21:05:14 10° 153° (SSE) 2,324 6.0 -12.0°
